Regional Weather Roundup
Issued by NWS

Home | Current Version | Previous Version | Graphics & Text | Print | Product List | Glossary On
Versions: 1 2 3 4 5 6 7 8 9 10 11 12 13 14 15 16 17 18 19 20 21 22 23 24 25 26 27 28 29 30 31 32 33 34 35 36 37 38 39 40 41 42 43 44 45 46 47 48 49 50
000
ASUS43 KLOT 301613
RWRIL

ILLINOIS REGIONAL WEATHER ROUNDUP
NATIONAL WEATHER SERVICE CHICAGO/ROMEOVILLE IL
1100 AM CDT FRI SEP 30 2016

NOTE: "FAIR" INDICATES FEW OR NO CLOUDS BELOW 12,000 FEET WITH NO
SIGNIFICANT WEATHER AND/OR OBSTRUCTIONS TO VISIBILITY.

* THESE STATIONS ARE NOT UNDER NWS QUALITY CONTROL. THEY ALSO MAY NOT
  REPORT WEATHER SUCH AS PRECIPITATION OR FOG.

ILZ001-002-007-009-015-016-024-301700-
NORTHWEST ILLINOIS

CITY           SKY/WX    TMP DP  RH WIND       PRES   REMARKS
MOLINE         CLOUDY    62  56  80 N13       30.19R
STERLING*      CLOUDY    63  58  83 N12       30.18F
SAVANNA*       CLOUDY    61  57  87 N8        30.20S
$$

ILZ003-004-008-010-011-017-018-301700-
NORTH CENTRAL ILLINOIS

CITY           SKY/WX    TMP DP  RH WIND       PRES   REMARKS
ROCKFORD       CLOUDY    65  58  78 NE14      30.19F
FREEPORT*      CLOUDY    61  56  83 N14G23    30.21F
ROCHELLE*      CLOUDY    60  59  96 NE13G18   30.17F
DE KALB*       CLOUDY    63  59  88 NE13G21   30.16F
$$

ILZ005-006-012>014-019>023-301700-
NORTHEAST ILLINOIS

CITY           SKY/WX    TMP DP  RH WIND       PRES   REMARKS
CHICAGO-OHARE  LGT RAIN  62  59  90 NE14      30.15S FOG
CHICAGO-MIDWAY LGT RAIN  63  60  90 NE13      30.13F FOG
AURORA         CLOUDY    66  60  81 NE17      30.14F
LANSING*       CLOUDY    61  61  98 NE10      30.12F
JOLIET*        CLOUDY    65  62  90 NE12G17   30.13S
WAUKEGAN       LGT RAIN  61  60  97 NE12      30.16F FOG
DUPAGE AIRPORT CLOUDY    62  59  90 NE13      30.15R
KANKAKEE*      DRIZZLE   62  60  96 N7        30.11F
WHEELING       CLOUDY    62  60  93 NE9       30.17F
MORRIS*        CLOUDY    64  59  85 NE5       30.12S
ROMEOVILLE*    CLOUDY    63  62  97 NE16G24   30.13S
NORTHERLY ISL    N/A     61  58  90 NE16        N/A
$$

LMZ740>746-301700-
SOUTHERN LAKE MICHIGAN

STATION/POSITION SKY/WX   TEMP    WIND        PRES    VSBY  WAVE
                          AIR SEA DIR/SP/G                  HT/PER
                          (F)     (DEG/KT/KT) (MB)    (MI)  (FT/S)
SOUTHERN BUOY              62 67   70/ 19/ 23 1021.0F         5/ 6
WILMETTE HARBOR            61 58   80/ 16/ 19   N/A           6/ 6
HARRISON CRIB              64      50/ 22/ 26   N/A
BURNHAM HARBOR             62      40/ 15/ 19   N/A
CALUMET HARBOR             62      40/ 14/ 19 1019.9F
BURNS HARBOR               62      50/ 19/ 22 1020.0F
MICHIGAN CITY              60      20/ 18/ 19   N/A
MICHIGAN CITY 6N           62 64   40/ 16/ 19   N/A           6/ 6
ST. JOSEPH                 58 51   40/ 10/ 12 1020.4          4/ 6
$$

ILZ025>027-034>036-040-047-049-050-058-095>099-301700-
WEST-CENTRAL ILLINOIS

CITY           SKY/WX    TMP DP  RH WIND       PRES   REMARKS
QUINCY         CLOUDY    66  57  72 N13       30.15F
GALESBURG*     CLOUDY    61  56  84 N15       30.17R
MACOMB*        CLOUDY    63  57  81 N17       30.19R
JACKSONVILLE*  CLOUDY    64  58  82 N9        30.13S
PITTSFIELD*    CLOUDY    63  57  82 N9        30.16S
$$

ILZ028>032-037-038-041>044-048-051>054-059>061-301700-
CENTRAL ILLINOIS

CITY           SKY/WX    TMP DP  RH WIND       PRES   REMARKS
PONTIAC        CLOUDY    64  63  96 NE14G20   30.12F
BLOOMINGTON    CLOUDY    62  60  93 NE13      30.11F
DECATUR        CLOUDY    63  59  87 N9        30.09F
PEORIA         LGT RAIN  61  61 100 N6        30.14S FOG
LACON*         CLOUDY    60  58  94 N6        30.13F
LINCOLN*       CLOUDY    64  62  91 N8        30.11F
SPRINGFIELD    CLOUDY    63  59  87 N10       30.12S
TAYLORVILLE    RAIN      61  60  97 N8        30.10S
$$

ILZ033-039-045-046-055>057-062-063-301700-
EAST-CENTRAL ILLINOIS

CITY           SKY/WX    TMP DP  RH WIND       PRES   REMARKS
CHAMPAIGN      LGT RAIN  62  59  90 N12       30.08F
RANTOUL*       CLOUDY    63  61  91 NE13      30.09R
MATTOON        LGT RAIN  62  59  90 N13       30.05F
PARIS*         CLOUDY    64  61  93 N3        30.06F
$$

ILZ079-100>102-301700-
SOUTHWEST ILLINOIS

CITY           SKY/WX    TMP DP  RH WIND       PRES   REMARKS
ALTON          PTSUNNY   63  57  82 NW6       30.11S
BELLEVILLE     DRIZZLE   64  63  94 N10       30.08F
CAHOKIA*       CLOUDY    64  57  78 N10       30.11S
SPARTA*        CLOUDY    60  59  96 NW8       30.10F
$$

ILZ064>066-069>071-074>076-080>082-084>086-088>090-092>094-301700-
SOUTH-CENTRAL ILLINOIS

CITY           SKY/WX    TMP DP  RH WIND       PRES   REMARKS
CARBONDALE     LGT RAIN  61  60  97 NW8       30.08S
CAIRO*         CLOUDY    64  57  77 NW6       30.09F
EFFINGHAM*     CLOUDY    64  62  94 NW6       30.07F
MARION         LGT RAIN  63  61  94 NW9       30.08S
MT. VERNON     CLOUDY    61  55  82 N5        30.07S
CENTRALIA*     CLOUDY    63  62  98 N8        30.07S
SALEM*         CLOUDY    63  60  89 N7        30.07F
METROPOLIS*    RAIN      61  59  92 W3        30.08F
$$

ILZ067-068-072-073-078-083-087-091-301700-
SOUTHEAST ILLINOIS

CITY           SKY/WX    TMP DP  RH WIND       PRES   REMARKS
LAWRENCEVILLE  CLOUDY    67  58  72 E8        30.04S
FLORA*         CLOUDY    65  61  86 N6        30.06S
FAIRFIELD*     CLOUDY    63  62  96 N5        30.04F
HARRISBURG*    CLOUDY    62  61  97 NW6       30.06S
ROBINSON*      PTSUNNY   65  60  82 E8        30.06R
CARMI*         CLOUDY    64  62  93 N5        30.04S
$$

ABBREVIATIONS USED IN REMARKS
   TC - TEMPERATURE IN CELSIUS
  WCI - WIND CHILL INDEX
   HX - HEAT INDEX
  VSB - VISIBILITY
$$




USA.gov is the U.S. government's official web portal to all federal, state and local government web resources and services.